sat.trackr.live / text

‹ back to catalog

STARLINK-30311

NORAD 57637 · 2023-122F

PAYLOAD ACTIVE UNKNOWN

§ Identity

Operator
Country
US
Launch date
2023-08-17
Launch site
AFETR
Launch vehicle
Mass (kg)
RCS (m²)

Purposes: comms

External: N2YO · Heavens-Above · Gunter

§ Orbital elements

Epoch: 2026-05-25T00:20:29.643072Z

Period
94.27 min
Inclination
43.0027°
Eccentricity
0.0001314
Mean motion
15.27576433 rev/d
Perigee alt
482.2 km
Apogee alt
484.0 km
Semi-major
6,861.2 km
B*
7.9253e-5
RAAN
21.1348°
Arg perigee
273.2845°
Mean anomaly
86.7856°
Rev number
15,388

§ Raw data

STARLINK-303111 57637U 23122F   26145.01423198  .00001919  00000+0  79253-4 0  99932 57637  43.0027  21.1348 0001314 273.2845  86.7856 15.27576433153883

JSON: /api/v1/satellites/57637 · /tle

For live sub-satellite position, see the globe view (requires WebGL).

§ Visibility from observer

Set your observer location to see the next 7 days of passes ≥ 10°. The values pass through the URL so the page stays shareable.

No JS? Fill the form by hand. The geolocation button needs JavaScript.